[[{"header":{"parameterUnit":"m.s-1","parameterCategory":1,"la1":30.2991,"la2":30.254,"lo1":-89.0895,"lo2":-89.0444,"dy":0.0017,"dx":0.0017,"nx":28,"ny":28,"refTime":"2025-06-01T03:00:00:Z","depth":0,"parameterNumber":2,"parameterNumberName":"U-component_of_WINDS"},"data":[0,0,0,0,0,0,0,0,0,0,0,0,0,0,0,0,0,0,0,0,0,0,0,0,0,0,0,0,0,0,0,0,0,0,0,0,0,0,0,0,0,0,0,0,0,0,0,0,0,0,0,0,0,0,0,0,0,0,-4.4319,-4.4319,0,-4.4328,-4.4328,-4.4328,-4.4226,-4.4224,-4.4221,-4.4218,-4.4228,-4.4231,-4.4234,0,0,0,0,0,0,0,0,0,0,0,0,0,-4.4212,-4.4214,-4.4319,-4.4319,-4.4319,-4.4328,-4.4328,-4.4328,-4.4227,-4.4223,-4.422,-4.4217,-4.4227,-4.4231,-4.4234,0,0,0,0,0,0,0,0,0,0,0,0,0,-4.4243,-4.4215,-4.4319,-4.4269,-4.4265,-4.4328,-4.4328,-4.4328,-4.4228,-4.4223,-4.4219,-4.4215,-4.4226,-4.423,-4.4235,-4.4345,0,0,-4.4248,-4.425,0,0,0,0,0,0,0,0,-4.4242,-4.4247,-4.4276,-4.4273,-4.4268,-4.4272,-4.4294,-4.4334,-4.4229,-4.4242,-4.4218,-4.4213,-4.4246,-4.4248,-4.4259,-4.4346,-4.4346,-4.4248,-4.4251,-4.4253,-4.4254,0,0,0,0,0,0,0,-4.424,-4.4246,-4.4322,-4.4277,-4.4272,-4.4246,-4.4246,-4.4301,-4.4267,-4.424,-4.4233,-4.4235,-4.4243,-4.4256,-4.4259,-4.4346,-4.4248,-4.4252,-4.4254,-4.4256,-4.4522,-4.4526,0,0,0,0,0,0,-4.4244,-4.4245,-4.4322,-4.4323,-4.4244,-4.4252,-4.4252,-4.4275,-4.4267,-4.4261,-4.4239,-4.4231,-4.425,-4.4254,-4.4259,-4.4386,-4.4253,-4.4257,-4.4259,-4.4518,-4.4523,-4.4528,0,0,0,0,0,0,-4.4242,-4.4252,-4.4322,-4.4282,-4.4289,-4.4258,-4.4285,-4.4277,-4.429,-4.4266,-4.4259,-4.4258,-4.4247,-4.4253,-4.4324,-4.4385,-4.4259,-4.4262,-4.4512,-4.4519,-4.4525,-4.4643,0,0,0,0,0,0,-4.424,-4.4252,-4.4294,-4.4284,-4.4291,-4.4387,-4.4289,-4.428,-4.4297,-4.4287,-4.4282,-4.4277,-4.4244,-4.4318,-4.4328,-4.4389,-4.4266,-4.4507,-4.4515,-4.4523,-4.4633,-4.4653,-4.4669,0,0,0,0,0,-4.4236,-4.4327,-4.4297,-4.4306,-4.4343,-4.4391,-4.4395,-4.4356,-4.4303,-4.4344,-4.4329,-4.4277,-4.4377,-4.4326,-4.4337,-4.44,-4.4503,-4.4513,-4.4523,-4.4625,-4.4649,-4.4669,0,0,0,0,0,0,-4.4346,-4.4325,-4.4291,-4.4381,-4.4389,-4.4374,-4.4425,-4.4382,-4.4405,-4.4394,-4.4344,-4.4344,-4.4423,-4.4419,-4.4362,-4.4505,-4.4431,-4.4443,-4.4505,-4.4527,-4.4545,-4.4543,-4.4269,0,0,0,0,0,-4.4381,-4.4421,-4.4401,-4.4482,-4.4488,-4.4456,-4.4475,-4.4444,-4.445,-4.4452,-4.4442,-4.4449,-4.4482,-4.4505,-4.4534,-4.4633,-4.4629,-4.4681,-4.4699,-4.4714,-4.4725,-4.4775,-4.4797,-4.4561,-4.4561,-4.4561,0,0,-4.4453,-4.4446,-4.4475,-4.4504,-4.4506,-4.4548,-4.4459,-4.4509,-4.4539,-4.446,-4.4525,-4.4519,-4.4524,-4.4609,-4.4646,-4.4607,-4.479,-4.4727,-4.4739,-4.4742,-4.4788,-4.481,-4.483,-4.4568,-4.4566,-4.4565,0,0,-4.4605,-4.4605,-4.4672,-4.4676,-4.468,-4.4658,-4.4674,-4.4666,-4.4657,-4.4723,-4.4664,-4.47,-4.4758,-4.4763,-4.4774,-4.4928,-4.488,-4.4939,-4.5032,-4.5081,-4.51,-4.5116,-4.5169,-4.5189,-4.495,-4.495,-4.4951,0,-4.4694,-4.4755,-4.4712,-4.4764,-4.4778,-4.4709,-4.4775,-4.4781,-4.4795,-4.4806,-4.4763,-4.4834,-4.4832,-4.4916,-4.4954,-4.4966,-4.4981,-4.4938,-4.5101,-4.5117,-4.5131,-4.5181,-4.5201,-4.4957,-4.4957,-4.4956,-4.4955,0,-4.4863,-4.4907,-4.496,-4.4974,-4.4995,-4.5054,-4.5019,-4.5045,-4.5013,-4.4995,-4.5062,-4.5058,-4.5084,-4.5102,-4.5072,-4.5182,-4.5158,-4.511,-4.5033,-4.5161,-4.5207,-4.5226,-4.4967,-4.4965,-4.4963,-4.4961,0,0,-4.5084,-4.5073,-4.5093,-4.5097,-4.5097,-4.5129,-4.5186,-4.5211,-4.5233,-4.5245,-4.529,-4.534,-4.5294,-4.5306,-4.5275,-4.5319,-4.5439,-4.5264,-4.5264,-4.5295,-4.5558,-4.5594,-4.5616,-4.5408,-4.5412,-4.5415,-4.5557,0,-4.523,-4.5325,-4.5287,-4.5385,-4.5423,-4.5358,-4.5406,-4.5411,-4.5396,-4.5427,-4.5411,-4.5447,-4.5385,-4.5391,-4.5432,-4.5416,-4.5491,-4.5405,-4.5448,-4.545,-4.5447,-4.5641,-4.5678,-4.5813,-4.5575,-4.5578,-4.558,0,-4.5413,-4.5432,-4.5533,-4.5524,-4.5538,-4.5583,-4.5602,-4.5633,-4.5636,-4.5622,-4.5636,-4.5595,-4.5648,-4.5574,-4.5646,-4.5589,-4.5605,-4.56,-4.5604,-4.5605,-4.5522,-4.5645,-4.5855,-4.5875,-4.5608,-4.5606,-4.5604,0,-4.5561,-4.5612,-4.5678,-4.5684,-4.5676,-4.5708,-4.5706,-4.5706,-4.5723,-4.574,-4.575,-4.5774,-4.5787,-4.5806,-4.5772,-4.5721,-4.5849,-4.5772,-4.5838,-4.5839,-4.5866,-4.5864,-4.608,-4.588,-4.588,-4.588,-4.5879,0,-4.5727,-4.5792,-4.5744,-4.5785,-4.5854,-4.581,-4.588,-4.5871,-4.5871,-4.5908,-4.5854,-4.589,-4.5845,-4.5876,-4.5851,-4.5914,-4.5921,-4.591,-4.5902,-4.5914,-4.5915,-4.5922,-4.5911,-4.5885,-4.5884,-4.5883,-4.5882,0,-4.5904,-4.5875,-4.5942,-4.5929,-4.5927,-4.5978,-4.5966,-4.6003,-4.5984,-4.6032,-4.6041,-4.6012,-4.6047,-4.6015,-4.6049,-4.6032,-4.6115,-4.6095,-4.6113,-4.6107,-4.6174,-4.6167,-4.6399,-4.6427,-4.6212,-4.6214,-4.6216,0,-4.6011,-4.6058,-4.6049,-4.607,-4.6071,-4.6106,-4.6122,-4.6081,-4.6101,-4.6108,-4.6144,-4.6173,-4.6195,-4.6253,-4.6235,-4.626,-4.6238,-4.6318,-4.6242,-4.6251,-4.6237,-4.6233,-4.6237,-4.6333,-4.6335,-4.6338,-4.6339,0,-4.6203,-4.6186,-4.6212,-4.6233,-4.6254,-4.6269,-4.628,-4.63,-4.6257,-4.6282,-4.6316,-4.6333,-4.6367,-4.6396,-4.6415,-4.6413,-4.6369,-4.6364,-4.638,-4.6391,-4.6399,-4.6393,-4.6153,-4.6358,-4.6356,-4.6355,-4.6354,-4.6353,-4.6346,-4.6384,-4.6383,-4.6414,-4.6417,-4.6428,-4.6461,-4.6447,-4.6474,-4.6498,-4.6472,-4.6513,-4.6515,-4.6535,-4.6538,-4.657,-4.6536,-4.656,-4.6566,-4.6572,-4.6581,-4.6396,-4.6573,-4.6573,-4.6572,-4.6572,-4.6571,0,-4.6533,-4.6529,-4.6558,-4.6573,-4.6597,-4.6554,-4.6563,-4.6586,-4.6623,-4.6627,-4.6649,-4.6688,-4.6716,-4.6701,-4.6725,-4.6753,-4.6733,-4.6761,-4.6757,-4.6757,-4.661,-4.6593,-4.6776,-4.6776,-4.6776,-4.6776,-4.6776,-4.6776,-4.6633,-4.6695,-4.6678,-4.6741,-4.6736,-4.6775,-4.6784,-4.6793,-4.6797,-4.6842,-4.6865,-4.6854,-4.6851,-4.6874,-4.6898,-4.6892,-4.6903,-4.6937,-4.6925,-4.6788,-4.6767,-4.6748,-4.6731,-4.6941,-4.6941,-4.7068,-4.7069,-4.707]},{"header":{"parameterUnit":"m.s-1","parameterCategory":1,"la1":30.2991,"la2":30.254,"lo1":-89.0895,"lo2":-89.0444,"dy":0.0017,"dx":0.0017,"nx":28,"ny":28,"refTime":"2025-06-01T03:00:00:Z","depth":0,"parameterNumber":3,"parameterNumberName":"V-component_of_WINDS"},"data":[0,0,0,0,0,0,0,0,0,0,0,0,0,0,0,0,0,0,0,0,0,0,0,0,0,0,0,0,0,0,0,0,0,0,0,0,0,0,0,0,0,0,0,0,0,0,0,0,0,0,0,0,0,0,0,0,0,0,3.0858,3.0859,0,3.0903,3.0903,3.0904,3.0885,3.0884,3.0883,3.0882,3.0923,3.0926,3.0928,0,0,0,0,0,0,0,0,0,0,0,0,0,3.0753,3.0755,3.0858,3.0859,3.0859,3.0903,3.0903,3.0904,3.0885,3.0884,3.0882,3.0881,3.0923,3.0925,3.0928,0,0,0,0,0,0,0,0,0,0,0,0,0,3.0798,3.0756,3.0858,3.0855,3.0856,3.0903,3.0903,3.0904,3.0885,3.0884,3.0882,3.0881,3.0922,3.0925,3.0928,3.098,0,0,3.0938,3.0939,0,0,0,0,0,0,0,0,3.0796,3.0802,3.0855,3.0856,3.0856,3.0887,3.0882,3.0929,3.0886,3.0874,3.0882,3.088,3.0912,3.0916,3.0928,3.0982,3.0983,3.0938,3.094,3.0941,3.0942,0,0,0,0,0,0,0,3.0793,3.08,3.0876,3.0856,3.0856,3.0851,3.0855,3.0891,3.0901,3.0875,3.0874,3.0879,3.0912,3.0925,3.0929,3.0984,3.0938,3.0941,3.0943,3.0944,3.1081,3.1083,0,0,0,0,0,0,3.079,3.0798,3.0874,3.0877,3.0821,3.0854,3.0859,3.0878,3.0901,3.0903,3.0881,3.0878,3.092,3.0925,3.093,3.0991,3.0941,3.0944,3.0946,3.108,3.1082,3.1084,0,0,0,0,0,0,3.0788,3.0797,3.0873,3.0837,3.0846,3.0857,3.0879,3.088,3.0893,3.0905,3.0907,3.0892,3.0919,3.0926,3.0968,3.0992,3.0946,3.0949,3.1077,3.108,3.1083,3.1114,0,0,0,0,0,0,3.0785,3.0796,3.0817,3.0838,3.0848,3.091,3.0881,3.0882,3.0899,3.0896,3.0916,3.0918,3.0918,3.0963,3.0971,3.0996,3.0951,3.1075,3.1079,3.1082,3.1111,3.1117,3.1123,0,0,0,0,0,3.0781,3.0823,3.0818,3.0827,3.0874,3.0912,3.0918,3.0918,3.0901,3.0921,3.0929,3.0917,3.0989,3.0967,3.0976,3.1002,3.1074,3.1078,3.1082,3.1108,3.1116,3.1123,0,0,0,0,0,0,3.0803,3.0826,3.082,3.0871,3.089,3.0909,3.0934,3.0927,3.095,3.0947,3.0945,3.095,3.0993,3.1002,3.0978,3.1053,3.1028,3.1034,3.1045,3.1053,3.1059,3.1055,3.0954,0,0,0,0,0,3.0815,3.0845,3.0862,3.0904,3.0915,3.0923,3.0939,3.0938,3.0957,3.0965,3.0976,3.0994,3.102,3.1037,3.1062,3.1112,3.1116,3.1135,3.1141,3.1146,3.115,3.1176,3.1185,3.1097,3.1096,3.1096,0,0,3.0837,3.0853,3.0872,3.0909,3.0924,3.0954,3.0929,3.0962,3.0983,3.0969,3.1009,3.1018,3.1038,3.1084,3.1105,3.1093,3.1176,3.1151,3.1155,3.1156,3.1181,3.1189,3.1197,3.1099,3.1099,3.1098,0,0,3.0893,3.0909,3.0946,3.0961,3.0984,3.0989,3.0998,3.1019,3.1024,3.1065,3.1055,3.108,3.1126,3.114,3.1153,3.1215,3.1205,3.1224,3.1255,3.128,3.1287,3.1293,3.1314,3.1322,3.1228,3.1229,3.1229,0,3.0917,3.0963,3.0965,3.0999,3.1015,3.1005,3.1041,3.1056,3.1085,3.1096,3.1083,3.114,3.1153,3.1201,3.1217,3.1228,3.1237,3.122,3.1286,3.1292,3.1298,3.1318,3.1326,3.1231,3.123,3.123,3.123,0,3.0991,3.1023,3.105,3.108,3.1099,3.1134,3.114,3.116,3.1157,3.1164,3.1205,3.122,3.1248,3.1259,3.1257,3.1308,3.1299,3.1287,3.1261,3.1308,3.1327,3.1335,3.1233,3.1233,3.1232,3.1232,0,0,3.1061,3.1093,3.1102,3.1116,3.1141,3.1164,3.1198,3.1227,3.1243,3.1264,3.1291,3.133,3.1319,3.1334,3.1333,3.1355,3.1402,3.1339,3.134,3.1349,3.1457,3.1466,3.1475,3.1396,3.1398,3.1399,3.1455,0,3.1118,3.1179,3.1182,3.1236,3.1265,3.1256,3.1286,3.1304,3.1311,3.1335,3.1342,3.137,3.1353,3.1362,3.1384,3.1392,3.1423,3.1388,3.142,3.1421,3.1414,3.1485,3.1494,3.1546,3.1463,3.1464,3.1465,0,3.1192,3.1216,3.1274,3.1295,3.1307,3.1334,3.1359,3.1383,3.1403,3.1407,3.1424,3.142,3.1453,3.1429,3.1474,3.145,3.1463,3.1469,3.1471,3.1473,3.1445,3.1487,3.1563,3.157,3.1476,3.1476,3.1475,0,3.1235,3.1282,3.1323,3.1335,3.136,3.1379,3.139,3.1409,3.1425,3.1448,3.1458,3.1484,3.1498,3.1517,3.152,3.1502,3.1565,3.1541,3.1567,3.1567,3.158,3.1578,3.1658,3.1591,3.1591,3.1591,3.1591,0,3.1297,3.1332,3.1343,3.1368,3.1407,3.141,3.1448,3.1458,3.1474,3.15,3.1494,3.1518,3.1521,3.1545,3.1547,3.1584,3.159,3.1593,3.1592,3.1592,3.1592,3.16,3.1596,3.1593,3.1593,3.1592,3.1592,0,3.1351,3.136,3.1404,3.1425,3.1431,3.1459,3.1476,3.1499,3.1506,3.1538,3.1546,3.1556,3.1585,3.159,3.1623,3.1624,3.1667,3.1664,3.1661,3.166,3.1686,3.1683,3.1772,3.1783,3.1711,3.1711,3.1712,0,3.139,3.1417,3.1441,3.1459,3.1471,3.1499,3.1517,3.1521,3.1538,3.1563,3.1583,3.1611,3.1634,3.1679,3.1689,3.1714,3.171,3.174,3.1714,3.1712,3.1709,3.1706,3.1708,3.1744,3.1745,3.1745,3.1746,0,3.1456,3.1459,3.1485,3.1513,3.1534,3.1556,3.1576,3.159,3.1596,3.1617,3.1646,3.1664,3.1698,3.1726,3.1751,3.1761,3.1754,3.1754,3.1762,3.1761,3.1757,3.1758,3.1673,3.1752,3.1751,3.1751,3.175,3.175,3.1503,3.1526,3.1547,3.1576,3.1592,3.1611,3.1634,3.1644,3.1669,3.1698,3.1699,3.1731,3.1749,3.1783,3.1795,3.1819,3.1809,3.182,3.1822,3.1825,3.1826,3.1755,3.1824,3.1823,3.1823,3.1823,3.1823,0,3.1568,3.1581,3.1608,3.1637,3.1659,3.1653,3.1675,3.1694,3.1722,3.1741,3.1764,3.1797,3.1824,3.1836,3.1862,3.1879,3.1876,3.1885,3.1883,3.1885,3.1834,3.1825,3.1887,3.1887,3.1887,3.1887,3.1887,3.1887,3.1604,3.1643,3.1649,3.1695,3.1708,3.174,3.1753,3.1771,3.1785,3.1824,3.1846,3.1854,3.187,3.1897,3.1921,3.1924,3.1933,3.1943,3.1944,3.1896,3.1889,3.1883,3.1874,3.1945,3.1945,3.1993,3.1993,3.1994]}]]